SCP
0 0 0 0 0 0 0 0 0 0 0 0 0 0 0 0 0 0 0 0 0 0 0 0 0 0 0 0 0 0 0 0 0 0 0 0 0 0
0 0 0 0 0 0 0 0 0 0 0 0 0 0 0 0 0 0 0 0 0 0 0 0 0 0 0 0 0 0 0 0 0 0 0 0 0 0
0 0 0 0 0 0 0 1 1 0 0 0 0 0 0 0 0 0 0 0 0 0 0 0 0 0 0 0 0 0 0 0 0 0 0 0 0 0
0 0 0 0 1 1 1 1 1 1 0 0 0 0 0 0 0 0 0 0 0 0 0 0 0 0 0 0 0 0 0 0 0 0 0 0 0 0
1 1 1 1 1 1 1 1 1 1 1 0 0 0 0 0 0 0 0 0 0 0 0 0 0 0 0 0 0 0 0 0 0 0 0 0 0 0
1 1 1 1 1 1 1 1 1 1 1 0 0 0 0 0 0 0 0 0 0 0 0 0 0 0 0 0 0 0 0 0 0 0 0 0 0 0
1 1 1 1 0 0 0 1 1 1 1 1 0 0 0 1 0 0 0 0 0 0 0 0 0 0 0 0 0 0 0 0 0 0 0 0 0 0
1 1 1 1 0 0 0 0 0 0 1 1 1 1 1 1 1 1 1 1 1 1 1 1 0 0 0 0 0 0 0 0 0 0 0 0 0 0
1 1 1 1 0 0 0 0 0 0 0 1 1 1 1 1 1 1 1 1 1 1 1 1 1 0 0 0 0 0 0 0 0 0 0 0 0 0
1 1 1 1 1 0 0 0 0 0 0 0 1 1 1 1 1 1 1 1 1 1 1 1 1 0 0 0 0 0 0 0 0 0 0 0 0 0
1 1 1 1 1 0 1 1 1 1 1 0 0 0 0 1 1 1 1 1 1 1 1 1 1 0 0 0 0 0 0 0 0 0 0 0 0 0
1 1 1 1 0 0 1 1 1 1 1 1 0 0 0 0 0 1 1 1 1 1 1 1 1 0 0 0 0 0 0 0 0 0 0 0 0 0
1 1 1 0 0 0 0 1 1 1 1 1 1 1 1 1 1 1 1 1 1 1 1 1 1 0 0 0 0 0 0 0 0 0 0 0 0 0
1 1 1 0 0 0 0 0 0 0 1 1 1 1 1 1 1 1 1 1 1 1 1 1 1 0 0 0 0 0 0 0 0 0 0 0 0 0
1 0 0 0 0 0 0 0 0 0 0 1 1 1 1 1 1 1 1 1 1 1 1 1 0 0 0 0 0 0 0 0 0 0 0 0 0 0
0 0 0 0 0 0 0 0 0 0 0 0 1 1 1 1 1 0 0 0 0 0 0 0 0 0 0 0 0 0 0 0 0 0 0 0 0 0
0 0 0 0 0 0 0 0 0 0 0 0 0 0 0 0 0 0 0 0 0 0 0 0 0 0 0 0 0 0 0 0 0 0 0 0 0 0
0 1 1 1 1 1 1 1 0 0 0 0 0 0 0 0 0 0 0 0 0 0 0 0 1 0 0 0 0 0 0 0 0 0 0 0 0 0
0 1 1 1 1 1 1 1 0 0 0 0 0 0 0 0 0 0 0 0 0 0 0 0 1 1 0 0 0 0 0 0 0 0 0 0 0 0
0 0 0 0 1 1 1 1 0 0 0 0 0 0 0 0 0 0 0 0 0 0 0 0 0 0 0 0 0 0 0 0 0 0 0 0 0 0
0 0 0 0 0 0 0 0 0 0 0 0 0 0 0 0 0 0 0 0 0 0 0 0 0 0 0 0 0 0 0 0 0 0 0 0 0 0
0 0 0 0 0 0 0 0 0 0 0 0 0 0 0 0 0 0 0 0 0 0 0 0 0 0 0 0 0 0 0 0 0 0 0 0 0 0
0 0 0 0 0 0 0 0 0 0 0 0 0 0 0 0 0 0 0 0 0 0 0 0 0 0 0 0 0 0 0 0 0 0 0 0 0 0
Wind_Speed
5 6 5 4 4 4 4 4 4 4 3 4 3 3 3 3 4 5 5 7 7 6 6 6 5 5 5 5 4 4 3 3 3 3 3 3 3 3
4 5 5 5 4 5 4 4 5 5 4 2 2 3 3 3 5 4 4 7 8 8 7 6 6 6 6 6 5 4 4 4 4 4 4 4 4 4
5 6 6 6 5 4 4 5 5 5 5 3 2 3 4 4 4 4 5 5 5 8 8 7 7 7 7 7 6 5 5 5 4 4 4 4 4 5
6 6 6 5 5 5 4 5 4 4 5 4 3 4 5 5 5 5 5 5 4 8 9 9 8 8 7 7 7 6 6 5 5 4 4 4 4 5
6 6 6 6 6 5 5 5 5 5 5 5 5 3 4 4 5 5 6 5 5 6 9 10 10 9 9 8 8 7 7 6 6 5 5 5 5 5
6 6 6 7 7 7 6 6 6 5 5 6 5 4 4 4 5 5 5 5 5 5 6 7 9 11 11 11 10 9 8 8 7 7 6 6 6 5
6 6 6 5 5 5 5 5 5 5 5 5 5 4 4 4 5 5 5 5 5 5 5 6 7 7 9 12 12 11 10 9 9 8 8 7 7 7
6 6 6 6 6 6 6 5 5 6 6 5 5 5 6 6 5 5 5 5 5 4 6 6 6 7 7 8 10 12 12 11 10 10 9 9 8 8
6 6 5 4 5 6 6 7 8 7 7 8 8 7 6 6 6 8 7 7 6 4 5 7 6 7 7 6 11 13 12 12 11 11 11 10 10 10
6 6 6 5 5 5 6 7 8 8 9 9 9 8 8 6 7 8 7 7 7 6 7 7 7 7 7 6 11 14 14 13 13 12 12 12 11 10
6 6 6 6 4 4 7 7 8 7 8 8 8 7 6 6 6 6 7 7 7 7 7 7 7 7 7 7 8 15 14 14 14 14 13 13 12 11
5 5 5 5 4 5 8 8 9 8 7 7 8 9 9 9 10 10 8 8 8 7 6 7 7 6 6 6 6 8 10 13 14 14 14 13 12 10
5 5 3 4 5 6 8 8 7 7 8 8 7 7 7 7 8 9 8 8 9 8 5 7 7 7 7 5 6 6 7 7 9 10 13 14 14 12
5 5 2 2 5 7 7 6 6 8 7 6 6 6 6 6 6 7 9 9 9 9 7 7 7 7 8 7 6 5 6 7 7 7 7 11 13 15
5 4 4 4 6 7 8 8 7 6 6 6 6 6 6 6 5 6 7 8 10 10 8 9 9 7 8 8 7 6 6 6 7 7 7 8 8 8
5 4 6 8 7 5 5 6 6 5 6 6 6 6 5 5 6 6 6 6 7 7 8 8 9 9 8 9 8 7 6 6 6 7 7 7 8 8
4 4 4 3 4 4 4 4 4 5 6 6 6 6 5 5 6 5 5 6 7 7 6 6 7 7 8 8 8 8 7 7 7 6 6 8 8 8
4 4 4 4 4 4 4 4 4 5 5 5 6 6 6 6 6 5 6 7 7 7 7 5 5 5 6 7 8 8 7 7 6 6 7 8 8 8
3 3 4 4 5 5 4 4 4 4 4 5 6 6 5 6 6 6 6 6 7 7 6 5 6 6 8 8 7 8 7 6 6 6 7 7 8 7
3 3 4 4 5 5 5 4 4 4 4 4 5 5 5 6 6 6 6 7 7 7 7 7 7 7 8 8 6 6 10 8 6 7 7 6 6 4
3 3 4 5 5 5 5 5 5 5 5 5 5 5 5 6 6 6 6 6 7 7 8 7 5 7 7 6 7 7 6 8 7 6 7 7 7 7
4 4 4 5 5 5 5 5 5 5 5 6 5 5 5 6 6 7 7 6 7 7 7 6 5 6 7 8 9 8 7 6 8 9 9 8 7 7
5 5 5 5 5 5 5 5 7 6 5 6 6 6 6 6 6 7 7 7 7 7 7 6 5 5 7 7 8 8 8 7 6 6 7 8 9 8
Wind_Direction
236 231 239 239 241 244 242 244 255 257 238 202 203 193 196 183 161 200 194 169 181 189 196 197 197 198 199 197 197 199 208 219 230 242 248 244 234 238
250 256 254 249 241 239 245 247 252 265 266 220 201 184 185 186 173 206 194 167 184 192 195 199 201 200 200 200 200 203 210 218 227 234 241 243 234 235
241 241 245 258 254 248 242 243 241 247 253 250 220 184 192 208 186 207 209 211 190 185 197 203 205 205 205 206 208 212 215 220 225 228 231 232 230 227
239 245 250 244 242 255 251 245 242 243 249 244 228 207 206 206 201 217 218 220 217 177 191 203 206 206 207 210 213 216 219 223 226 230 230 231 230 227
242 242 246 246 245 244 248 250 245 236 238 240 230 214 213 207 206 219 222 227 227 186 189 198 202 205 209 212 216 218 219 220 223 224 227 230 228 227
248 244 243 244 246 244 240 244 249 247 235 239 232 220 215 201 216 222 223 219 227 216 202 203 200 206 211 213 214 215 218 220 222 223 224 223 222 224
248 248 247 249 261 259 262 248 241 244 238 235 233 230 224 208 221 226 233 231 227 225 222 216 206 211 205 211 213 214 217 218 220 221 222 220 219 220
248 246 240 230 230 231 251 260 260 249 249 247 239 237 234 229 229 233 233 234 237 214 230 234 223 224 219 217 194 199 210 214 216 219 220 218 217 218
250 250 254 235 225 232 218 222 236 245 253 258 258 254 245 232 230 232 232 240 250 234 230 241 229 235 233 215 182 193 204 212 217 219 219 218 217 219
249 245 250 252 244 244 236 231 234 230 229 235 249 255 256 245 234 240 244 242 245 239 228 247 240 239 238 224 185 194 202 210 216 219 219 219 220 222
247 245 249 247 229 236 241 240 243 240 223 224 237 243 248 242 239 242 236 238 244 238 222 242 247 242 238 231 200 193 202 207 212 216 218 219 218 221
244 239 229 248 228 223 240 241 243 245 245 229 228 230 233 227 220 232 237 240 245 243 215 229 243 239 241 227 217 200 205 208 211 215 216 216 211 223
264 258 244 198 220 231 246 252 252 260 253 243 235 233 230 229 224 224 233 241 245 246 227 217 240 237 244 241 227 217 215 215 212 216 215 212 208 219
269 273 280 201 228 237 242 252 259 260 252 247 242 238 236 234 233 231 232 240 249 256 253 237 247 245 248 250 243 225 222 224 220 221 218 200 208 218
278 304 295 256 242 236 228 235 240 245 250 249 250 247 245 242 240 235 233 235 242 246 242 235 243 246 248 253 252 239 232 229 224 222 220 212 212 215
267 261 237 239 243 253 240 228 235 245 249 251 253 255 254 246 239 236 239 235 239 240 236 236 242 249 247 250 251 246 238 234 223 221 224 225 220 220
283 271 273 265 258 252 250 246 240 236 240 248 252 250 248 247 246 242 241 243 244 246 241 232 230 239 251 251 248 244 239 239 233 220 224 232 228 225
268 268 274 273 273 274 269 255 246 246 250 252 253 252 252 250 248 245 241 243 246 247 247 239 232 233 243 244 238 248 245 242 237 223 229 234 232 225
253 270 274 276 277 276 273 269 265 261 256 256 254 252 252 252 251 250 246 246 249 250 248 239 232 235 244 252 231 217 244 248 239 231 229 235 240 233
267 273 276 278 280 285 286 286 284 278 265 264 262 258 256 255 254 252 250 253 256 256 252 242 234 236 248 260 266 241 217 234 239 239 239 241 244 239
282 285 287 289 290 291 293 289 285 282 280 274 269 269 263 257 256 256 254 246 250 256 255 251 242 232 249 256 259 256 234 216 232 243 244 242 241 236
300 297 296 298 297 294 293 291 288 284 279 272 272 269 266 265 261 259 259 256 252 254 259 261 249 235 238 243 251 256 252 233 224 230 239 245 248 246
313 312 309 306 307 305 304 304 302 297 293 291 285 275 270 268 266 264 261 258 257 258 259 257 254 247 246 246 251 254 251 241 231 227 234 223 224 234